Regional Weather Roundup
Issued by NWS Green Bay, WI

Home | Current Version | Previous Version | Graphics & Text | Print | Product List | Glossary Off
Versions: 1 2 3 4 5 6 7 8 9 10 11 12 13 14 15 16 17 18 19 20 21 22 23 24 25 26 27 28 29 30 31 32 33 34 35 36 37 38 39 40 41 42 43 44 45 46 47 48 49 50

000
ASUS43 KGRB 171900
RWRGRB

NORTH-CENTRAL AND NORTHEAST WISCONSIN REGIONAL WEATHER ROUNDUP
NATIONAL WEATHER SERVICE GREEN BAY WI
100 PM CST TUE JAN 17 2017

WIZ005-009-010>012-018-019-172000-
NORTH CENTRAL WISCONSIN

CITY           SKY/WX    TMP DP  RH WIND       PRES   REMARKS
IRONWOOD       SUNNY     35  25  66 NW7       29.90F
MANITOWISH WTR NOT AVBL
ARBOR VITAE    NOT AVBL
EAGLE RIVER    NOT AVBL
LAND O LAKES   NOT AVBL
RHINELANDER    CLOUDY    39  32  76 N6        29.85R
PHILLIPS       MOSUNNY   37  32  82 N3        29.87S
ANTIGO         NOT AVBL
TOMAHAWK       NOT AVBL
MERRILL        CLOUDY    36  34  92 NE6         N/A
$$

WIZ013-073-172000-
NORTHEAST WISCONSIN

CITY           SKY/WX    TMP DP  RH WIND       PRES   REMARKS
IRON MOUNTAIN  CLOUDY    36  31  82 N5        29.84S
MARINETTE      NOT AVBL
$$

WIZ017-030-035>037-045-172000-
CENTRAL WISCONSIN

CITY           SKY/WX    TMP DP  RH WIND       PRES   REMARKS
MEDFORD        NOT AVBL
WAUSAU         CLOUDY    35  33  92 NE6       29.83F FOG
MOSINEE        CLOUDY    34  34 100 N6        29.85S FOG
MARSHFIELD     CLOUDY    35  32  88 N6        29.84S FOG
WISC RAPIDS    CLOUDY    35  34  96 N6        29.86S
STEVENS POINT  NOT AVBL
WAUPACA        NOT AVBL
SHAWANO        NOT AVBL
CLINTONVILLE   CLOUDY    34  32  93 N6        29.84F FOG
WAUTOMA        CLOUDY    36  35  96 N5        29.85F
$$

WIZ038-039-048-051-172000-
FOX VALLEY

CITY           SKY/WX    TMP DP  RH WIND       PRES   REMARKS
NWS GREEN BAY  CLOUDY    36  35  96 N8        29.82F FOG
APPLETON         N/A     34  34 100 N7        29.82S FOG
OSHKOSH        MIX PCPN  34  32  92 NW6       29.83F VSB 1
FOND DU LAC    FOG       34  32  92 NW6       29.84S VSB 1
$$

WIZ022-050-052-172000-
EAST CENTRAL WISCONSIN

CITY           SKY/WX    TMP DP  RH WIND       PRES   REMARKS
EPHRAIM        NOT AVBL
WASHINGTON ISL NOT AVBL
STURGEON BAY   CLOUDY    36  35  96 N8        29.82F FOG
MANITOWOC      NOT AVBL
SHEBOYGAN      FOG       34  33  96 NW7       29.81F VSB 1/4
$$

LMZ563-521-522-541>543-172000-
LAKESHORE

STATION/POSITION TIME  TEMP    WIND        PRES    VSBY  WAVE
                       AIR SEA DIR/SP/G                  HT/PER
                 (UTC) (F)     (DEG/KT/KT) (MB)    (MI)  (FT/S)
SHEBOYGAN LKSHOR 1800   36     310/  8/  9 1010.1S
KEWAUNEE LKSHORE 1830   36      10/  6/  9 1009.1F
NORTHPORT PIER   1840   34      50/ 10/ 13 1010.5S
SISTER BAY LKSHO 1820   35      90/  7/ 10   N/A
MENOMINEE LKSHOR 1830           10/ 17/ 19 1009.7F
$$




USA.gov is the U.S. government's official web portal to all federal, state and local government web resources and services.